User: anonymous   Login
Location: Unspecified
(0.0000°N, 0.0000°E)
Time: 16:05:02
(UTC+00:00)
Language:

N. Korean satellite - Orbit

View from above orbital plane
View from above orbital plane
View from above satellite
View from above satellite

Ground track
Ground track

The orbit data is extracted from the following two-line orbital elements,

1 39026U 12072A   18346.52808608  .00001602  00000-0  61293-4 0  9995
2 39026  97.2096 350.8761 0040057  51.5657 308.9167 15.27275988332871
Epoch (UTC): 12 December 2018 12:40:26
Eccentricity: 0.0040057
inclination: 97.2096°
perigee height: 456 km
apogee height: 511 km
right ascension of ascending node: 350.8761°
argument of perigee: 51.5657°
revolutions per day: 15.27275988
mean anomaly at epoch: 308.9167°
orbit number at epoch: 33287

The dashed part of the orbit path shows where the satellite is in the earth's shadow,  

DLR